Time,TemperatureF,DewpointF,PressureIn,WindDirection,WindDirectionDegrees,WindSpeedMPH,WindSpeedGustMPH,Humidity,HourlyPrecipIn,Conditions,Clouds,dailyrainin,SoftwareType,DateUTC
2013-01-13 00:03:00,42.0,41.0,30.14,SW,229,1.0,3.0,96,0.00,,,0.05,,2013-01-13 05:03:00,
2013-01-13 00:12:00,42.0,41.0,30.14,SW,229,1.0,3.0,96,0.00,,,0.05,,2013-01-13 05:12:00,
2013-01-13 00:23:00,41.0,40.0,30.13,SE,139,0.0,5.0,96,0.00,,,0.05,,2013-01-13 05:23:00,
2013-01-13 00:32:00,42.0,41.0,30.14,SSW,205,1.0,4.0,96,0.00,,,0.02,,2013-01-13 05:32:00,
2013-01-13 00:42:00,42.0,41.0,30.14,SSW,205,1.0,4.0,96,0.00,,,0.02,,2013-01-13 05:42:00,
2013-01-13 00:53:00,42.0,41.0,30.14,SW,232,2.0,4.0,96,0.00,,,0.02,,2013-01-13 05:53:00,
2013-01-13 01:03:00,42.0,41.0,30.14,SSW,210,1.0,3.0,96,0.00,,,0.02,,2013-01-13 06:03:00,
2013-01-13 01:12:00,42.0,41.0,30.14,SSW,210,1.0,3.0,96,0.00,,,0.02,,2013-01-13 06:12:00,
2013-01-13 01:22:00,42.0,41.0,30.14,South,178,0.0,4.0,96,0.00,,,0.02,,2013-01-13 06:22:00,
2013-01-13 01:32:00,42.0,41.0,30.14,WSW,253,0.0,3.0,96,0.00,,,0.01,,2013-01-13 06:32:00,
2013-01-13 01:42:00,42.0,41.0,30.14,WSW,253,0.0,3.0,96,0.00,,,0.01,,2013-01-13 06:42:00,
2013-01-13 01:52:00,42.0,41.0,30.14,SSW,211,2.0,3.0,96,0.00,,,0.01,,2013-01-13 06:52:00,
2013-01-13 02:02:00,42.0,41.0,30.15,SW,214,0.0,2.0,96,0.00,,,0.01,,2013-01-13 07:02:00,
2013-01-13 02:12:00,42.0,41.0,30.15,SW,214,0.0,2.0,96,0.00,,,0.01,,2013-01-13 07:12:00,
2013-01-13 02:22:00,42.0,41.0,30.15,South,187,2.0,3.0,96,0.00,,,0.01,,2013-01-13 07:22:00,
2013-01-13 02:32:00,42.0,41.0,30.15,SE,140,2.0,4.0,96,0.00,,,0.01,,2013-01-13 07:32:00,
2013-01-13 02:42:00,42.0,41.0,30.15,SE,140,2.0,4.0,96,0.00,,,0.01,,2013-01-13 07:42:00,
2013-01-13 02:53:00,42.0,41.0,30.14,SW,229,1.0,5.0,96,0.00,,,0.01,,2013-01-13 07:53:00,
2013-01-13 03:02:00,42.0,41.0,30.14,SSW,210,1.0,4.0,96,0.00,,,0.01,,2013-01-13 08:02:00,
2013-01-13 03:12:00,42.0,41.0,30.14,SSW,210,1.0,4.0,96,0.00,,,0.01,,2013-01-13 08:12:00,
2013-01-13 03:22:00,42.0,41.0,30.14,South,169,2.0,4.0,96,0.00,,,0.01,,2013-01-13 08:22:00,
2013-01-13 03:32:00,42.0,41.0,30.14,SE,146,2.0,4.0,96,0.00,,,0.01,,2013-01-13 08:32:00,
2013-01-13 03:42:00,42.0,41.0,30.14,SE,146,2.0,4.0,96,0.00,,,0.01,,2013-01-13 08:42:00,
2013-01-13 03:53:00,42.0,41.0,30.13,South,174,2.0,6.0,96,0.00,,,0.01,,2013-01-13 08:53:00,
2013-01-13 04:02:00,42.0,41.0,30.13,SSW,205,3.0,4.0,96,0.00,,,0.01,,2013-01-13 09:02:00,
2013-01-13 04:12:00,42.0,41.0,30.11,South,181,2.0,5.0,96,0.00,,,0.01,,2013-01-13 09:12:00,
2013-01-13 04:22:00,42.0,41.0,30.11,South,181,2.0,5.0,96,0.00,,,0.01,,2013-01-13 09:22:00,
2013-01-13 04:32:00,42.0,41.0,30.12,SSE,167,1.0,4.0,96,0.00,,,0.00,,2013-01-13 09:32:00,
2013-01-13 04:42:00,42.0,41.0,30.12,SSE,167,1.0,4.0,96,0.00,,,0.00,,2013-01-13 09:42:00,
2013-01-13 04:52:00,42.0,41.0,30.12,SE,145,1.0,3.0,96,0.00,,,0.00,,2013-01-13 09:52:00,
2013-01-13 05:02:00,42.0,41.0,30.11,SSE,153,0.0,2.0,96,0.00,,,0.00,,2013-01-13 10:02:00,
2013-01-13 05:12:00,42.0,41.0,30.11,SSE,153,0.0,2.0,96,0.00,,,0.00,,2013-01-13 10:12:00,
2013-01-13 05:22:00,42.0,41.0,30.12,SE,143,0.0,1.0,96,0.00,,,0.00,,2013-01-13 10:22:00,
2013-01-13 05:32:00,42.0,41.0,30.11,SW,214,0.0,1.0,96,0.00,,,0.00,,2013-01-13 10:32:00,
2013-01-13 05:42:00,42.0,41.0,30.11,SW,214,0.0,1.0,96,0.00,,,0.00,,2013-01-13 10:42:00,
2013-01-13 05:53:00,42.0,41.0,30.12,SSE,147,0.0,0.0,96,0.00,,,0.00,,2013-01-13 10:53:00,
2013-01-13 06:02:00,42.0,41.0,30.13,SSE,148,0.0,0.0,96,0.00,,,0.00,,2013-01-13 11:02:00,
2013-01-13 06:12:00,42.0,41.0,30.13,SSE,148,0.0,0.0,96,0.00,,,0.00,,2013-01-13 11:12:00,
2013-01-13 06:22:00,42.0,41.0,30.12,SSE,147,0.0,0.0,96,0.00,,,0.00,,2013-01-13 11:22:00,
2013-01-13 06:32:00,42.0,41.0,30.12,SE,124,0.0,0.0,96,0.00,,,0.00,,2013-01-13 11:32:00,
2013-01-13 06:42:00,42.0,41.0,30.12,SE,124,0.0,0.0,96,0.00,,,0.00,,2013-01-13 11:42:00,
2013-01-13 06:53:00,42.0,41.0,30.13,SE,126,0.0,0.0,96,0.00,,,0.00,,2013-01-13 11:53:00,
2013-01-13 07:03:00,42.0,41.0,30.13,SE,126,0.0,0.0,96,0.00,,,0.00,,2013-01-13 12:03:00,
2013-01-13 07:12:00,42.0,41.0,30.13,SE,126,0.0,0.0,96,0.00,,,0.00,,2013-01-13 12:12:00,
2013-01-13 07:22:00,42.0,41.0,30.12,SSW,210,0.0,1.0,96,0.00,,,0.00,,2013-01-13 12:22:00,
2013-01-13 07:33:00,41.0,40.0,30.14,SW,218,0.0,0.0,96,0.00,,,0.00,,2013-01-13 12:33:00,
2013-01-13 07:42:00,41.0,40.0,30.14,SW,218,0.0,0.0,96,0.00,,,0.00,,2013-01-13 12:42:00,
2013-01-13 07:53:00,42.0,41.0,30.14,SSE,147,0.0,1.0,96,0.01,,,0.01,,2013-01-13 12:53:00,
2013-01-13 08:03:00,42.0,41.0,30.15,SW,218,0.0,0.0,96,0.01,,,0.01,,2013-01-13 13:03:00,
2013-01-13 08:12:00,42.0,41.0,30.15,SW,218,0.0,0.0,96,0.01,,,0.01,,2013-01-13 13:12:00,
2013-01-13 08:22:00,42.0,41.0,30.14,SW,215,0.0,1.0,96,0.01,,,0.01,,2013-01-13 13:22:00,
2013-01-13 08:33:00,42.0,41.0,30.14,South,169,1.0,2.0,96,0.01,,,0.01,,2013-01-13 13:33:00,
2013-01-13 08:42:00,42.0,41.0,30.14,South,169,1.0,2.0,96,0.01,,,0.01,,2013-01-13 13:42:00,
2013-01-13 08:53:00,43.0,42.0,30.14,SSE,150,1.0,3.0,96,0.00,,,0.01,,2013-01-13 13:53:00,
2013-01-13 09:03:00,43.0,42.0,30.15,SSW,207,2.0,5.0,96,0.00,,,0.01,,2013-01-13 14:03:00,
2013-01-13 09:12:00,43.0,42.0,30.15,SSW,207,2.0,5.0,96,0.00,,,0.01,,2013-01-13 14:12:00,
2013-01-13 09:22:00,43.0,42.0,30.16,South,190,2.0,4.0,96,0.00,,,0.01,,2013-01-13 14:22:00,
2013-01-13 09:33:00,44.0,43.0,30.16,SW,233,2.0,5.0,96,0.00,,,0.01,,2013-01-13 14:33:00,
2013-01-13 09:43:00,44.0,43.0,30.16,SW,233,2.0,5.0,96,0.00,,,0.01,,2013-01-13 14:43:00,
2013-01-13 09:53:00,44.0,43.0,30.15,SW,218,1.0,4.0,96,0.00,,,0.01,,2013-01-13 14:53:00,
2013-01-13 10:03:00,45.0,44.0,30.15,SE,140,0.0,5.0,96,0.00,,,0.01,,2013-01-13 15:03:00,
2013-01-13 10:13:00,45.0,44.0,30.15,SE,140,0.0,5.0,96,0.00,,,0.01,,2013-01-13 15:13:00,
2013-01-13 10:23:00,45.0,44.0,30.15,SW,218,0.0,2.0,96,0.00,,,0.01,,2013-01-13 15:23:00,
2013-01-13 10:33:00,45.0,44.0,30.15,SW,218,0.0,4.0,96,0.00,,,0.01,,2013-01-13 15:33:00,
2013-01-13 10:43:00,45.0,44.0,30.15,SW,218,0.0,4.0,96,0.00,,,0.01,,2013-01-13 15:43:00,
2013-01-13 10:53:00,45.0,44.0,30.15,SSW,198,2.0,4.0,96,0.00,,,0.01,,2013-01-13 15:53:00,
2013-01-13 11:03:00,45.0,44.0,30.14,SSE,160,2.0,4.0,96,0.00,,,0.01,,2013-01-13 16:03:00,
2013-01-13 11:12:00,45.0,44.0,30.14,SSE,160,2.0,4.0,96,0.00,,,0.01,,2013-01-13 16:12:00,
2013-01-13 11:23:00,45.0,44.0,30.14,South,183,1.0,7.0,96,0.00,,,0.01,,2013-01-13 16:23:00,
2013-01-13 11:33:00,46.0,45.0,30.13,SSW,210,2.0,5.0,96,0.00,,,0.01,,2013-01-13 16:33:00,
2013-01-13 11:43:00,46.0,45.0,30.13,SSW,210,2.0,5.0,96,0.00,,,0.01,,2013-01-13 16:43:00,
2013-01-13 11:53:00,46.0,45.0,30.13,SSW,210,1.0,3.0,96,0.00,,,0.01,,2013-01-13 16:53:00,
2013-01-13 12:03:00,46.0,45.0,30.12,SSW,210,0.0,0.0,96,0.00,,,0.01,,2013-01-13 17:03:00,
2013-01-13 12:12:00,46.0,45.0,30.12,SSW,210,0.0,0.0,96,0.00,,,0.01,,2013-01-13 17:12:00,
2013-01-13 12:22:00,47.0,46.0,30.11,SSW,212,1.0,3.0,96,0.00,,,0.01,,2013-01-13 17:22:00,
2013-01-13 12:33:00,47.0,46.0,30.11,SSE,148,1.0,3.0,96,0.00,,,0.01,,2013-01-13 17:33:00,
2013-01-13 12:42:00,47.0,46.0,30.11,SSE,148,1.0,3.0,96,0.00,,,0.01,,2013-01-13 17:42:00,
2013-01-13 12:53:00,47.0,46.0,30.09,SSE,148,2.0,4.0,96,0.00,,,0.01,,2013-01-13 17:53:00,
2013-01-13 13:03:00,48.0,47.0,30.08,SE,146,2.0,4.0,96,0.00,,,0.01,,2013-01-13 18:03:00,
2013-01-13 13:12:00,48.0,47.0,30.08,SE,146,2.0,4.0,96,0.00,,,0.01,,2013-01-13 18:12:00,
2013-01-13 13:23:00,48.0,47.0,30.08,SSW,197,3.0,6.0,96,0.00,,,0.01,,2013-01-13 18:23:00,
2013-01-13 13:33:00,48.0,47.0,30.07,SSE,150,3.0,6.0,96,0.00,,,0.01,,2013-01-13 18:33:00,
2013-01-13 13:43:00,48.0,47.0,30.07,SSE,150,3.0,6.0,96,0.00,,,0.01,,2013-01-13 18:43:00,
2013-01-13 13:53:00,48.0,47.0,30.08,SSE,161,2.0,5.0,96,0.00,,,0.01,,2013-01-13 18:53:00,
2013-01-13 14:03:00,48.0,47.0,30.09,SSE,150,1.0,4.0,96,0.00,,,0.01,,2013-01-13 19:03:00,
2013-01-13 14:12:00,48.0,47.0,30.09,SSE,150,1.0,4.0,96,0.00,,,0.01,,2013-01-13 19:12:00,
2013-01-13 14:23:00,48.0,47.0,30.08,SSE,159,3.0,7.0,96,0.00,,,0.01,,2013-01-13 19:23:00,
2013-01-13 14:33:00,49.0,48.0,30.07,SSE,167,4.0,7.0,96,0.00,,,0.01,,2013-01-13 19:33:00,
2013-01-13 14:43:00,49.0,48.0,30.07,SSE,167,4.0,7.0,96,0.00,,,0.01,,2013-01-13 19:43:00,
2013-01-13 14:53:00,49.0,48.0,30.07,SSW,195,3.0,5.0,96,0.00,,,0.01,,2013-01-13 19:53:00,
2013-01-13 15:03:00,49.0,48.0,30.07,SSW,200,3.0,7.0,96,0.00,,,0.01,,2013-01-13 20:03:00,
2013-01-13 15:12:00,49.0,48.0,30.07,SSW,200,3.0,7.0,96,0.00,,,0.01,,2013-01-13 20:12:00,
2013-01-13 15:22:00,49.0,48.0,30.07,SE,133,2.0,4.0,96,0.00,,,0.01,,2013-01-13 20:22:00,
2013-01-13 15:33:00,49.0,48.0,30.07,SE,143,3.0,6.0,96,0.00,,,0.01,,2013-01-13 20:33:00,
2013-01-13 15:43:00,49.0,48.0,30.07,SE,143,3.0,6.0,96,0.00,,,0.01,,2013-01-13 20:43:00,
2013-01-13 15:53:00,49.0,48.0,30.06,SW,229,1.0,3.0,96,0.00,,,0.01,,2013-01-13 20:53:00,
2013-01-13 16:03:00,49.0,48.0,30.06,SSE,150,0.0,3.0,96,0.00,,,0.01,,2013-01-13 21:03:00,
2013-01-13 16:12:00,49.0,48.0,30.06,SSE,150,0.0,3.0,96,0.00,,,0.01,,2013-01-13 21:12:00,
2013-01-13 16:23:00,49.0,48.0,30.05,SSE,152,0.0,0.0,95,0.00,,,0.01,,2013-01-13 21:23:00,
2013-01-13 16:33:00,49.0,48.0,30.04,SSE,156,2.0,3.0,95,0.00,,,0.01,,2013-01-13 21:33:00,
2013-01-13 16:43:00,49.0,48.0,30.04,SSE,156,2.0,3.0,95,0.00,,,0.01,,2013-01-13 21:43:00,
2013-01-13 16:53:00,49.0,48.0,30.03,SSE,147,2.0,4.0,95,0.00,,,0.01,,2013-01-13 21:53:00,
2013-01-13 17:02:00,49.0,48.0,30.03,SW,214,4.0,9.0,96,0.00,,,0.01,,2013-01-13 22:02:00,
2013-01-13 17:12:00,49.0,48.0,30.03,SW,214,4.0,9.0,96,0.00,,,0.01,,2013-01-13 22:12:00,
2013-01-13 17:22:00,49.0,48.0,30.03,SSW,205,4.0,7.0,96,0.00,,,0.01,,2013-01-13 22:22:00,
2013-01-13 17:33:00,49.0,48.0,30.02,SSE,155,5.0,11.0,95,0.00,,,0.01,,2013-01-13 22:33:00,
2013-01-13 17:43:00,49.0,48.0,30.02,SSE,155,5.0,11.0,95,0.00,,,0.01,,2013-01-13 22:43:00,
2013-01-13 17:53:00,50.0,49.0,30.02,SSW,197,4.0,10.0,95,0.00,,,0.01,,2013-01-13 22:53:00,
2013-01-13 18:02:00,50.0,49.0,30.01,SSE,167,5.0,8.0,95,0.00,,,0.01,,2013-01-13 23:02:00,
2013-01-13 18:12:00,50.0,49.0,30.01,SSE,167,5.0,8.0,95,0.00,,,0.01,,2013-01-13 23:12:00,
2013-01-13 18:23:00,50.0,49.0,30.01,SSE,162,4.0,9.0,95,0.00,,,0.01,,2013-01-13 23:23:00,
2013-01-13 18:33:00,50.0,49.0,30.01,SSW,206,5.0,8.0,95,0.00,,,0.01,,2013-01-13 23:33:00,
2013-01-13 18:43:00,50.0,49.0,30.01,SSW,206,5.0,8.0,95,0.00,,,0.01,,2013-01-13 23:43:00,
2013-01-13 18:53:00,50.0,49.0,30.00,SSW,194,4.0,8.0,95,0.00,,,0.01,,2013-01-13 23:53:00,
2013-01-13 19:03:00,50.0,49.0,30.00,South,190,5.0,8.0,95,0.00,,,0.01,,2013-01-14 00:03:00,
2013-01-13 19:12:00,50.0,49.0,30.00,South,190,5.0,8.0,95,0.00,,,0.01,,2013-01-14 00:12:00,
2013-01-13 19:22:00,50.0,49.0,30.01,SE,139,3.0,7.0,95,0.00,,,0.01,,2013-01-14 00:22:00,
2013-01-13 19:33:00,49.0,48.0,30.01,WNW,300,3.0,6.0,95,0.00,,,0.01,,2013-01-14 00:33:00,
2013-01-13 19:43:00,49.0,48.0,30.01,WNW,300,3.0,6.0,95,0.00,,,0.01,,2013-01-14 00:43:00,
2013-01-13 19:53:00,49.0,48.0,30.01,SW,222,2.0,4.0,95,0.00,,,0.01,,2013-01-14 00:53:00,
2013-01-13 20:03:00,50.0,49.0,30.01,West,263,2.0,4.0,95,0.00,,,0.01,,2013-01-14 01:03:00,
2013-01-13 20:12:00,50.0,49.0,30.01,West,263,2.0,4.0,95,0.00,,,0.01,,2013-01-14 01:12:00,
2013-01-13 20:22:00,50.0,49.0,30.01,SW,214,2.0,5.0,95,0.00,,,0.01,,2013-01-14 01:22:00,
2013-01-13 20:33:00,50.0,48.0,30.01,SSW,212,2.0,8.0,94,0.00,,,0.01,,2013-01-14 01:33:00,
2013-01-13 20:42:00,50.0,48.0,30.01,SSW,212,2.0,8.0,94,0.00,,,0.01,,2013-01-14 01:42:00,
2013-01-13 20:53:00,50.0,48.0,30.01,SSE,156,3.0,5.0,94,0.00,,,0.01,,2013-01-14 01:53:00,
2013-01-13 21:03:00,50.0,48.0,30.00,SW,219,4.0,7.0,93,0.00,,,0.01,,2013-01-14 02:03:00,
2013-01-13 21:12:00,50.0,48.0,30.00,SW,219,4.0,7.0,93,0.00,,,0.01,,2013-01-14 02:12:00,
2013-01-13 21:22:00,50.0,48.0,29.99,SSE,160,4.0,8.0,93,0.00,,,0.01,,2013-01-14 02:22:00,
2013-01-13 21:33:00,50.0,48.0,29.99,SSE,165,3.0,7.0,93,0.00,,,0.01,,2013-01-14 02:33:00,
2013-01-13 21:42:00,50.0,48.0,29.99,SSE,165,3.0,7.0,93,0.00,,,0.01,,2013-01-14 02:42:00,
2013-01-13 21:53:00,51.0,49.0,29.98,South,181,2.0,7.0,93,0.00,,,0.01,,2013-01-14 02:53:00,
2013-01-13 22:03:00,51.0,49.0,29.98,SSW,193,1.0,3.0,93,0.00,,,0.01,,2013-01-14 03:03:00,
2013-01-13 22:12:00,51.0,49.0,29.98,SSW,193,1.0,3.0,93,0.00,,,0.01,,2013-01-14 03:12:00,
2013-01-13 22:22:00,51.0,49.0,29.98,South,179,4.0,6.0,93,0.00,,,0.01,,2013-01-14 03:22:00,
2013-01-13 22:33:00,51.0,49.0,29.97,South,172,3.0,5.0,92,0.00,,,0.01,,2013-01-14 03:33:00,
2013-01-13 22:42:00,51.0,49.0,29.97,South,172,3.0,5.0,92,0.00,,,0.01,,2013-01-14 03:42:00,
2013-01-13 22:53:00,51.0,49.0,29.98,SSW,195,3.0,7.0,92,0.00,,,0.01,,2013-01-14 03:53:00,
2013-01-13 23:02:00,51.0,48.0,29.97,SSE,156,4.0,7.0,91,0.00,,,0.01,,2013-01-14 04:02:00,
2013-01-13 23:12:00,51.0,48.0,29.97,SSE,156,4.0,7.0,91,0.00,,,0.01,,2013-01-14 04:12:00,
2013-01-13 23:22:00,51.0,48.0,29.96,SSE,158,3.0,7.0,91,0.00,,,0.01,,2013-01-14 04:22:00,
2013-01-13 23:32:00,51.0,48.0,29.98,West,269,3.0,7.0,91,0.00,,,0.01,,2013-01-14 04:32:00,
2013-01-13 23:42:00,51.0,48.0,29.98,West,269,3.0,7.0,91,0.00,,,0.01,,2013-01-14 04:42:00,
2013-01-13 23:53:00,52.0,49.0,29.97,SSE,160,5.0,10.0,91,0.00,,,0.01,,2013-01-14 04:53:00,